GW4074 Weather Reports


Display with metric or nautical units.
time (UTC)temp
F
wind
direction
speed
MPH
gust
MPH
rain 1hr
in
rain 24hr
in
rain mn
in
humidity
%
barometer
mb
20260507112539 47 62 2.0 3.0 0.00 0.00 0.00 99 1020.2
20260507112035 47 62 2.0 3.0 0.00 0.00 0.00 99 1020.2
20260507111532 47 57 2.0 3.0 0.00 0.00 0.00 99 1020.2
20260507111029 47 46 1.0 2.0 0.00 0.00 0.00 99 1020.2
20260507110525 48 102 2.0 2.0 0.00 0.00 0.00 99 1020.2
20260507110022 48 123 2.0 2.0 0.00 0.00 0.00 99 1020.2
20260507105519 48 87 1.0 2.0 0.00 0.00 0.00 99 1020.4
20260507105015 47 56 2.0 2.0 0.00 0.00 0.00 99 1020.4
20260507104513 47 108 2.0 2.0 0.00 0.00 0.00 99 1020.4
20260507104009 47 56 2.0 2.0 0.00 0.00 0.00 99 1020.1
20260507103505 47 38 0.0 2.0 0.00 0.00 0.00 99 1020.2
20260507103002 47 57 0.0 1.0 0.00 0.00 0.00 99 1020.3
20260507102459 47 47 2.0 3.0 0.00 0.00 0.00 99 1020.4
20260507101954 47 35 2.0 2.0 0.00 0.00 0.00 99 1020.3
20260507101449 47 42 2.0 3.0 0.00 0.00 0.00 99 1020.2
20260507100947 47 43 2.0 3.0 0.00 0.00 0.00 99 1020.2
20260507100444 47 69 2.0 3.0 0.00 0.00 0.00 99 1020.3
20260507095942 47 93 2.0 2.0 0.00 0.00 0.00 99 1020.2
20260507095440 47 61 0.0 2.0 0.00 0.00 0.00 99 1020.4
20260507094936 47 33 2.0 3.0 0.00 0.00 0.00 99 1020.4
20260507094432 47 99 2.0 2.0 0.00 0.00 0.00 99 1020.4
20260507093929 47 81 1.0 2.0 0.00 0.00 0.00 99 1020.2
20260507093427 47 105 2.0 2.0 0.00 0.00 0.00 99 1020.4
20260507092925 47 107 2.0 2.0 0.00 0.00 0.00 99 1020.4
20260507092421 48 57 1.0 3.0 0.00 0.00 0.00 99 1020.5
20260507091917 48 104 2.0 2.0 0.00 0.00 0.00 99 1020.5
20260507091414 48 73 0.0 1.0 0.00 0.00 0.00 99 1020.5
20260507090909 48 123 1.0 1.0 0.00 0.00 0.00 99 1020.5
20260507090406 48 135 0.0 1.0 0.00 0.00 0.00 99 1020.5
20260507085903 48 128 2.0 2.0 0.00 0.00 0.00 99 1020.5
20260507085400 48 77 1.0 2.0 0.00 0.00 0.00 99 1020.6
20260507084857 48 102 2.0 2.0 0.00 0.00 0.00 99 1020.5
20260507084354 48 111 2.0 3.0 0.00 0.00 0.00 99 1020.5
20260507083851 49 123 3.0 3.0 0.00 0.00 0.00 99 1020.5
20260507083347 49 96 2.0 2.0 0.00 0.00 0.00 99 1020.5
20260507082843 49 97 1.0 2.0 0.00 0.00 0.00 99 1020.4
20260507082339 49 125 1.0 3.0 0.00 0.00 0.00 99 1020.4
20260507081837 49 135 2.0 2.0 0.00 0.00 0.00 99 1020.4
20260507081332 49 55 0.0 1.0 0.00 0.00 0.00 99 1020.5
20260507080829 49 30 0.0 1.0 0.00 0.00 0.00 99 1020.3
20260507080325 49 98 1.0 1.0 0.00 0.00 0.00 99 1020.4
20260507075821 49 66 0.0 2.0 0.00 0.00 0.00 99 1020.4
20260507075317 49 107 2.0 2.0 0.00 0.00 0.00 99 1020.3
20260507074814 49 93 1.0 1.0 0.00 0.00 0.00 99 1020.4
20260507074312 49 117 0.0 2.0 0.00 0.00 0.00 99 1020.4
20260507073809 49 107 2.0 2.0 0.00 0.00 0.00 99 1020.2
20260507073305 49 94 1.0 2.0 0.00 0.00 0.00 99 1020.2
20260507072802 49 84 1.0 2.0 0.00 0.00 0.00 99 1020.2
20260507072300 49 61 1.0 2.0 0.00 0.00 0.00 99 1020.0
20260507071757 49 58 2.0 2.0 0.02 0.00 0.00 99 1020.2
20260507071253 49 46 2.0 2.0 0.02 0.00 0.00 99 1020.2
20260507070750 49 48 2.0 2.0 0.00 0.00 0.00 99 1020.2
20260507070247 49 102 0.0 2.0 0.00 0.00 0.00 99 1020.3
20260507065744 49 120 0.0 1.0 0.00 0.10 0.10 99 1020.2
20260507065241 49 101 0.0 1.0 0.00 0.10 0.10 99 1020.2
20260507064738 49 98 1.0 2.0 0.00 0.10 0.10 99 1020.2
20260507064237 49 107 2.0 2.0 0.00 0.10 0.10 99 1020.1
20260507063734 49 113 1.0 2.0 0.00 0.10 0.10 99 1020.2
20260507063230 49 67 1.0 2.0 0.00 0.10 0.10 99 1020.2
20260507062727 49 62 1.0 2.0 0.00 0.10 0.10 99 1020.2
20260507062225 49 82 1.0 2.0 0.00 0.10 0.10 99 1020.4
20260507061723 49 55 0.0 1.0 0.00 0.10 0.10 99 1020.0
20260507061221 49 60 0.0 2.0 0.00 0.10 0.10 99 1020.4
20260507060718 49 105 1.0 2.0 0.00 0.10 0.10 99 1020.3
20260507060215 49 77 1.0 1.0 0.00 0.10 0.10 99 1020.3
20260507055710 49 117 0.0 1.0 0.00 0.10 0.10 99 1020.2
20260507055207 49 89 0.0 1.0 0.00 0.10 0.10 99 1020.1
20260507054703 49 44 0.0 1.0 0.00 0.10 0.10 99 1020.3
20260507054159 49 64 1.0 1.0 0.00 0.10 0.10 99 1020.3
20260507053658 49 80 1.0 2.0 0.00 0.10 0.10 99 1020.3
20260507053155 49 80 1.0 2.0 0.00 0.10 0.10 99 1020.4
20260507052654 49 103 1.0 2.0 0.00 0.10 0.10 99 1020.3
20260507052149 49 89 1.0 2.0 0.00 0.10 0.10 99 1020.5
20260507051647 49 64 1.0 2.0 0.00 0.10 0.10 99 1020.5
20260507051143 49 70 2.0 2.0 0.00 0.10 0.10 99 1020.4
20260507050641 49 92 2.0 2.0 0.00 0.10 0.10 99 1020.5
20260507050137 49 69 1.0 2.0 0.00 0.10 0.10 99 1020.4
20260507045634 49 69 1.0 2.0 0.00 0.10 0.10 99 1020.5
20260507045131 49 24 0.0 1.0 0.00 0.10 0.10 99 1020.5
20260507044628 49 57 1.0 2.0 0.00 0.10 0.10 99 1020.5
20260507044125 50 68 2.0 2.0 0.00 0.10 0.10 99 1020.4
20260507043621 50 36 1.0 2.0 0.00 0.10 0.10 99 1020.4
20260507043118 50 76 0.0 1.0 0.00 0.10 0.10 99 1020.3
20260507042614 50 51 0.0 2.0 0.00 0.10 0.10 99 1020.3
20260507042109 50 113 1.0 1.0 0.00 0.10 0.10 99 1020.4
20260507041606 50 107 2.0 2.0 0.00 0.10 0.10 99 1020.2
20260507041103 50 120 2.0 2.0 0.00 0.10 0.10 99 1020.2
20260507040600 50 110 2.0 2.0 0.00 0.10 0.10 99 1020.3
20260507040056 50 113 2.0 2.0 0.00 0.10 0.10 99 1020.4
20260507035552 50 110 2.0 2.0 0.00 0.10 0.10 99 1020.3
20260507035049 50 114 1.0 2.0 0.00 0.10 0.10 99 1020.2
20260507034545 50 110 2.0 2.0 0.00 0.10 0.10 99 1020.2
20260507034044 50 112 1.0 2.0 0.00 0.10 0.10 99 1020.1